| time (UTC) | temp C | wind direction | speed KPH | gust KPH | rain 1hr cm | rain 24hr cm | rain mn cm | humidity % | barometer mb |
| 20260502194539 | 16 | 278 | 9.7 | 27.4 | 0.00 | 0.00 | 0.00 | 39 | 1015.7 |
| 20260502193039 | 16 | 299 | 9.7 | 24.1 | 0.00 | 0.00 | 0.00 | 40 | 1015.9 |
| 20260502191546 | 16 | 274 | 12.9 | 22.5 | 0.00 | 0.00 | 0.00 | 42 | 1016.0 |
| 20260502190040 | 15 | 300 | 14.5 | 27.4 | 0.00 | 0.00 | 0.00 | 39 | 1016.4 |
| 20260502184546 | 15 | 271 | 14.5 | 29.0 | 0.00 | 0.00 | 0.00 | 39 | 1016.5 |
| 20260502183059 | 15 | 284 | 9.7 | 22.5 | 0.00 | 0.00 | 0.00 | 40 | 1017.0 |
| 20260502181544 | 15 | 302 | 16.1 | 30.6 | 0.00 | 0.00 | 0.00 | 42 | 1017.3 |
| 20260502163052 | 13 | 302 | 11.3 | 24.1 | 0.00 | 0.00 | 0.00 | 45 | 1018.7 |
| 20260502161539 | 12 | 283 | 11.3 | 24.1 | 0.00 | 0.00 | 0.00 | 41 | 1018.8 |
| 20260502151542 | 11 | 279 | 16.1 | 25.7 | 0.00 | 0.00 | 0.00 | 43 | 1019.4 |
| 20260502123039 | 3 | 277 | 3.2 | 6.4 | 0.00 | 0.00 | 0.00 | 76 | 1020.0 |
| 20260502121546 | 2 | 287 | 0.0 | 3.2 | 0.00 | 0.00 | 0.00 | 78 | 1020.0 |
| 20260502114938 | 0 | 0 | 0.0 | 1.6 | 0.00 | 0.03 | 0.00 | 82 | 1019.9 |
| 20260502113039 | 0 | 0 | 0.0 | 1.6 | 0.00 | 0.03 | 0.00 | 82 | 1019.8 |
| 20260502111536 | 0 | 0 | 0.0 | 1.6 | 0.00 | 0.03 | 0.00 | 82 | 1019.7 |
| 20260502110035 | 0 | 0 | 1.6 | 3.2 | 0.00 | 0.03 | 0.00 | 81 | 1019.8 |
| 20260502104540 | 0 | 288 | 1.6 | 3.2 | 0.00 | 0.03 | 0.00 | 81 | 1019.8 |
| 20260502103043 | 0 | 0 | 0.0 | 1.6 | 0.00 | 0.03 | 0.00 | 81 | 1019.8 |
| 20260502101544 | 0 | 285 | 0.0 | 1.6 | 0.00 | 0.03 | 0.00 | 82 | 1019.8 |
| 20260502070039 | 0 | 0 | 0.0 | 0.0 | 0.00 | 0.03 | 0.00 | 74 | 1019.7 |
| 20260502064535 | 1 | 0 | 0.0 | 0.0 | 0.00 | 0.03 | 0.00 | 73 | 1019.9 |
| 20260502063034 | 1 | 0 | 0.0 | 0.0 | 0.00 | 0.03 | 0.00 | 72 | 1020.0 |
| 20260502061612 | 1 | 0 | 0.0 | 0.0 | 0.00 | 0.03 | 0.00 | 71 | 1020.0 |
| 20260502060039 | 2 | 0 | 0.0 | 0.0 | 0.00 | 0.03 | 0.00 | 69 | 1020.0 |
| 20260502054535 | 2 | 0 | 0.0 | 0.0 | 0.00 | 0.03 | 0.00 | 68 | 1020.1 |
| 20260502053036 | 2 | 0 | 0.0 | 0.0 | 0.00 | 0.03 | 0.00 | 68 | 1020.0 |
| 20260502051545 | 3 | 0 | 0.0 | 0.0 | 0.00 | 0.03 | 0.00 | 67 | 1019.9 |
| 20260502050041 | 3 | 0 | 0.0 | 0.0 | 0.00 | 0.03 | 0.00 | 65 | 1019.8 |
| 20260502044538 | 3 | 0 | 0.0 | 0.0 | 0.00 | 0.05 | 0.03 | 63 | 1019.7 |
| 20260502043043 | 3 | 0 | 0.0 | 0.0 | 0.00 | 0.05 | 0.03 | 63 | 1019.7 |
| 20260502041601 | 3 | 0 | 0.0 | 0.0 | 0.00 | 0.05 | 0.03 | 63 | 1019.7 |
| 20260502040044 | 3 | 0 | 0.0 | 0.0 | 0.00 | 0.05 | 0.03 | 63 | 1019.8 |
| 20260502034536 | 3 | 0 | 0.0 | 1.6 | 0.00 | 0.05 | 0.03 | 61 | 1019.8 |
| 20260502033049 | 4 | 0 | 0.0 | 0.0 | 0.00 | 0.05 | 0.03 | 60 | 1019.9 |
| 20260502031542 | 4 | 0 | 0.0 | 0.0 | 0.00 | 0.05 | 0.03 | 61 | 1019.8 |
| 20260502030040 | 4 | 0 | 0.0 | 0.0 | 0.00 | 0.05 | 0.03 | 61 | 1019.8 |
| 20260502024539 | 4 | 0 | 0.0 | 0.0 | 0.00 | 0.05 | 0.03 | 60 | 1019.7 |
| 20260502023037 | 4 | 0 | 0.0 | 0.0 | 0.00 | 0.05 | 0.03 | 61 | 1019.6 |
| 20260502021536 | 5 | 0 | 0.0 | 0.0 | 0.00 | 0.05 | 0.03 | 60 | 1019.5 |
| 20260502020037 | 6 | 0 | 0.0 | 0.0 | 0.00 | 0.05 | 0.03 | 56 | 1019.4 |
| 20260502014544 | 6 | 0 | 0.0 | 0.0 | 0.00 | 0.05 | 0.03 | 57 | 1019.3 |
| 20260502013039 | 7 | 0 | 0.0 | 0.0 | 0.00 | 0.05 | 0.03 | 53 | 1019.1 |
| 20260502011544 | 8 | 0 | 0.0 | 1.6 | 0.00 | 0.05 | 0.03 | 51 | 1019.1 |
| 20260502010042 | 9 | 0 | 0.0 | 3.2 | 0.00 | 0.05 | 0.03 | 49 | 1018.9 |
| 20260502004539 | 10 | 32 | 0.0 | 4.8 | 0.00 | 0.05 | 0.03 | 47 | 1018.7 |
| 20260502003038 | 9 | 0 | 0.0 | 3.2 | 0.00 | 0.05 | 0.03 | 49 | 1018.5 |
| 20260502001548 | 10 | 18 | 0.0 | 4.8 | 0.00 | 0.05 | 0.03 | 46 | 1018.4 |
| 20260502000045 | 10 | 0 | 1.6 | 8.0 | 0.00 | 0.05 | 0.03 | 45 | 1018.3 |
| 20260501234540 | 11 | 2 | 1.6 | 9.7 | 0.00 | 0.05 | 0.03 | 45 | 1018.2 |
| 20260501233159 | 11 | 35 | 3.2 | 8.0 | 0.00 | 0.05 | 0.03 | 42 | 1018.2 |
| 20260501231551 | 11 | 0 | 0.0 | 6.4 | 0.00 | 0.05 | 0.03 | 45 | 1018.2 |
| 20260501230035 | 10 | 37 | 1.6 | 8.0 | 0.00 | 0.05 | 0.03 | 46 | 1018.2 |
| 20260501224546 | 11 | 18 | 1.6 | 9.7 | 0.00 | 0.05 | 0.03 | 44 | 1018.2 |
| 20260501223107 | 11 | 332 | 1.6 | 8.0 | 0.00 | 0.05 | 0.03 | 43 | 1018.2 |
| 20260501221535 | 11 | 0 | 0.0 | 6.4 | 0.00 | 0.05 | 0.03 | 46 | 1018.2 |
| 20260501220036 | 11 | 324 | 1.6 | 9.7 | 0.00 | 0.05 | 0.03 | 48 | 1018.2 |
| 20260501214544 | 11 | 330 | 0.0 | 8.0 | 0.00 | 0.05 | 0.03 | 47 | 1018.2 |
| 20260501213043 | 11 | 29 | 3.2 | 9.7 | 0.00 | 0.05 | 0.03 | 44 | 1018.1 |
| 20260501211540 | 11 | 0 | 0.0 | 9.7 | 0.00 | 0.05 | 0.03 | 45 | 1018.1 |
| 20260501210036 | 11 | 18 | 3.2 | 11.3 | 0.00 | 0.05 | 0.03 | 47 | 1018.2 |
| 20260501204548 | 12 | 51 | 1.6 | 12.9 | 0.00 | 0.05 | 0.03 | 44 | 1018.3 |
| 20260501203035 | 11 | 11 | 4.8 | 16.1 | 0.00 | 0.05 | 0.03 | 45 | 1018.5 |
| 20260501200040 | 11 | 0 | 1.6 | 9.7 | 0.00 | 0.05 | 0.03 | 44 | 1018.5 |